TimeEDT,TemperatureF,Dew PointF,Humidity,Sea Level PressureIn,VisibilityMPH,Wind Direction,Wind SpeedMPH,Gust SpeedMPH,PrecipitationIn,Events,Conditions,WindDirDegrees,DateUTC
12:56 AM,73.9,69.1,85,29.88,10.0,SW,9.2,-,N/A,,Scattered Clouds,220,2013-06-27 04:56:00
1:56 AM,72.0,69.1,91,29.87,10.0,Calm,Calm,-,N/A,,Partly Cloudy,0,2013-06-27 05:56:00
2:56 AM,72.0,70.0,93,29.88,10.0,SW,5.8,-,N/A,,Scattered Clouds,230,2013-06-27 06:56:00
3:56 AM,72.0,70.0,93,29.88,10.0,SW,6.9,-,N/A,,Mostly Cloudy,230,2013-06-27 07:56:00
4:56 AM,72.0,70.0,93,29.88,10.0,SSW,6.9,-,N/A,,Overcast,210,2013-06-27 08:56:00
5:56 AM,71.1,70.0,96,29.87,10.0,SSW,5.8,-,N/A,,Scattered Clouds,200,2013-06-27 09:56:00
6:56 AM,72.0,70.0,93,29.86,10.0,SSW,5.8,-,N/A,,Mostly Cloudy,210,2013-06-27 10:56:00
7:56 AM,75.0,70.0,84,29.87,10.0,SW,9.2,-,N/A,,Mostly Cloudy,220,2013-06-27 11:56:00
8:56 AM,80.1,70.0,71,29.84,10.0,SSW,10.4,-,N/A,,Mostly Cloudy,210,2013-06-27 12:56:00
9:56 AM,82.0,73.0,74,29.84,10.0,SW,15.0,-,N/A,,Mostly Cloudy,220,2013-06-27 13:56:00
10:56 AM,82.0,73.9,76,29.82,10.0,SSW,10.4,-,N/A,,Mostly Cloudy,200,2013-06-27 14:56:00
11:56 AM,86.0,75.0,70,29.80,10.0,SSW,10.4,-,N/A,,Overcast,200,2013-06-27 15:56:00
12:56 PM,89.1,73.9,61,29.78,10.0,SSW,17.3,23.0,N/A,,Mostly Cloudy,210,2013-06-27 16:56:00
1:56 PM,90.0,73.9,59,29.77,10.0,SW,20.7,28.8,N/A,,Mostly Cloudy,220,2013-06-27 17:56:00
2:56 PM,91.0,73.9,57,29.74,10.0,SSW,17.3,27.6,N/A,,Mostly Cloudy,210,2013-06-27 18:56:00
3:56 PM,91.0,73.0,55,29.72,10.0,SW,18.4,25.3,N/A,,Mostly Cloudy,220,2013-06-27 19:56:00
4:56 PM,91.0,73.0,55,29.71,10.0,SW,16.1,-,N/A,,Mostly Cloudy,220,2013-06-27 20:56:00
5:56 PM,81.0,71.1,72,29.73,10.0,South,12.7,23.0,0.00,Rain,Light Rain,190,2013-06-27 21:56:00
6:11 PM,82.4,71.6,70,29.72,10.0,SSW,15.0,-,0.00,,Mostly Cloudy,200,2013-06-27 22:11:00
6:56 PM,82.0,70.0,67,29.71,10.0,SSW,15.0,24.2,0.00,,Mostly Cloudy,200,2013-06-27 22:56:00
7:56 PM,81.0,70.0,69,29.71,10.0,SW,17.3,25.3,N/A,,Mostly Cloudy,220,2013-06-27 23:56:00
8:24 PM,80.6,71.6,74,29.71,10.0,SSW,12.7,-,0.00,Rain,Light Rain,210,2013-06-28 00:24:00
8:39 PM,80.6,71.6,74,29.72,10.0,SW,11.5,-,0.00,,Mostly Cloudy,220,2013-06-28 00:39:00
8:56 PM,80.1,72.0,76,29.73,10.0,SSW,10.4,-,0.00,,Mostly Cloudy,210,2013-06-28 00:56:00
9:56 PM,79.0,73.0,82,29.72,10.0,SSW,13.8,20.7,N/A,,Mostly Cloudy,210,2013-06-28 01:56:00
10:56 PM,78.1,73.9,87,29.73,10.0,SSW,11.5,-,N/A,,Mostly Cloudy,210,2013-06-28 02:56:00
11:56 PM,78.1,73.0,84,29.71,10.0,SSW,12.7,-,N/A,,Mostly Cloudy,210,2013-06-28 03:56:00